Location: College Park
(38.9810°N, 76.9370°W)
Time: 22:41:04

Envisat - Pass Details

Date: 15 March 2018
Orbit: 764 x 766 km, 98.2° (Epoch: 23 March)

Event Time Altitude Azimuth Distance (km) Brightness Sun altitude
Rises 19:36:44 0° 134° (SE) 3,220 5.8 -5.1°
Reaches altitude 10° 19:39:21 10° 122° (ESE) 2,297 5.0 -5.6°
Maximum altitude 19:43:29 26° 67° (ENE) 1,479 4.0 -6.4°
Drops below altitude 10° 19:47:38 10° 12° (NNE) 2,309 5.4 -7.2°
Sets 19:50:15 0° 0° (N) 3,239 6.3 -7.7°
